Terug naar catalogus

STARLINK-35144

ActiefCommunicatieSSO
NORAD 65538·PAYLOAD·🇺🇸 United States

Gelanceerd Sep 6, 2025 vanaf Cape Canaveral Space Force Station

Loading…

Volgende Passages (komende 24 uur)

TLE

VersSource: CelesTrak SupGP

Epoch: Sep 14, 2026, 21:42 UTC

1 65538C 25200U   26257.90465278 -.00047292  00000+0 -14682-2 0  2574
2 65538  97.2841 324.3882 0000920 105.2266 302.2787 15.33460922    18

Volg STARLINK-35144 in realtime met AllMySat

Download on the App Store